Time,TemperatureF,DewpointF,PressureIn,WindDirection,WindDirectionDegrees,WindSpeedMPH,WindSpeedGustMPH,Humidity,HourlyPrecipIn,Conditions,Clouds,dailyrainin,SolarRadiationWatts/m^2,SoftwareType,DateUTC
2013-05-06 00:02:00,57.0,56.0,29.58,East,81,7.0,22.0,95,0.00,,,0.02,0.000000,,2013-05-06 04:02:00,
2013-05-06 00:12:00,57.0,56.0,29.58,East,81,7.0,22.0,95,0.00,,,0.02,0.000000,,2013-05-06 04:12:00,
2013-05-06 00:43:00,55.0,54.0,29.58,East,79,7.0,17.0,98,0.00,,,0.02,0.000000,,2013-05-06 04:43:00,
2013-05-06 00:53:00,55.0,54.0,29.58,East,79,7.0,17.0,98,0.00,,,0.02,0.000000,,2013-05-06 04:53:00,
2013-05-06 01:02:00,55.0,54.0,29.58,East,79,7.0,17.0,98,0.00,,,0.02,0.000000,,2013-05-06 05:02:00,
2013-05-06 01:12:00,55.0,54.0,29.58,East,79,7.0,17.0,98,0.00,,,0.02,0.000000,,2013-05-06 05:12:00,
2013-05-06 01:32:00,56.0,56.0,29.58,East,81,6.0,16.0,100,0.00,,,0.02,0.000000,,2013-05-06 05:32:00,
2013-05-06 01:42:00,56.0,56.0,29.58,East,81,6.0,16.0,100,0.00,,,0.02,0.000000,,2013-05-06 05:42:00,
2013-05-06 01:52:00,56.0,56.0,29.58,East,81,6.0,16.0,100,0.00,,,0.02,0.000000,,2013-05-06 05:52:00,
2013-05-06 02:02:00,56.0,56.0,29.58,East,81,6.0,16.0,100,0.00,,,0.02,0.000000,,2013-05-06 06:02:00,
2013-05-06 02:12:00,56.0,56.0,29.58,East,81,6.0,16.0,100,0.00,,,0.02,0.000000,,2013-05-06 06:12:00,
2013-05-06 02:42:00,54.0,54.0,29.56,ENE,78,7.0,20.0,100,0.00,,,0.02,0.000000,,2013-05-06 06:42:00,
2013-05-06 02:52:00,54.0,54.0,29.56,ENE,78,7.0,20.0,100,0.00,,,0.02,0.000000,,2013-05-06 06:52:00,
2013-05-06 03:01:00,54.0,54.0,29.56,ENE,78,7.0,20.0,100,0.00,,,0.02,0.000000,,2013-05-06 07:01:00,
2013-05-06 03:11:00,54.0,54.0,29.56,ENE,78,7.0,20.0,100,0.00,,,0.02,0.000000,,2013-05-06 07:11:00,
2013-05-06 03:42:00,54.0,54.0,29.54,ENE,77,8.0,19.0,100,0.00,,,0.02,0.000000,,2013-05-06 07:42:00,
2013-05-06 03:52:00,54.0,54.0,29.54,ENE,77,8.0,19.0,100,0.00,,,0.02,0.000000,,2013-05-06 07:52:00,
2013-05-06 04:02:00,54.0,54.0,29.54,ENE,77,8.0,19.0,100,0.00,,,0.02,0.000000,,2013-05-06 08:02:00,
2013-05-06 04:12:00,54.0,54.0,29.54,ENE,77,8.0,19.0,100,0.00,,,0.02,0.000000,,2013-05-06 08:12:00,
2013-05-06 04:42:00,54.0,54.0,29.53,East,85,7.0,23.0,100,0.01,,,0.03,0.000000,,2013-05-06 08:42:00,
2013-05-06 04:52:00,54.0,54.0,29.53,East,85,7.0,23.0,100,0.01,,,0.03,0.000000,,2013-05-06 08:52:00,
2013-05-06 05:02:00,54.0,54.0,29.53,East,85,7.0,23.0,100,0.01,,,0.03,0.000000,,2013-05-06 09:02:00,
2013-05-06 05:11:00,54.0,54.0,29.53,East,85,7.0,23.0,100,0.01,,,0.03,0.000000,,2013-05-06 09:11:00,
2013-05-06 05:43:00,56.0,56.0,29.52,East,81,8.0,18.0,100,0.02,,,0.05,0.000000,,2013-05-06 09:43:00,
2013-05-06 05:53:00,56.0,56.0,29.52,East,81,8.0,18.0,100,0.02,,,0.05,0.000000,,2013-05-06 09:53:00,
2013-05-06 06:03:00,56.0,56.0,29.52,East,81,8.0,18.0,100,0.02,,,0.05,0.000000,,2013-05-06 10:03:00,
2013-05-06 06:12:00,56.0,56.0,29.52,East,81,8.0,18.0,100,0.02,,,0.05,0.000000,,2013-05-06 10:12:00,
2013-05-06 06:42:00,56.0,56.0,29.52,ENE,74,8.0,18.0,100,0.01,,,0.06,0.000000,,2013-05-06 10:42:00,
2013-05-06 06:52:00,56.0,56.0,29.52,ENE,74,8.0,18.0,100,0.01,,,0.06,0.000000,,2013-05-06 10:52:00,
2013-05-06 07:02:00,56.0,56.0,29.52,ENE,74,8.0,18.0,100,0.01,,,0.06,0.000000,,2013-05-06 11:02:00,
2013-05-06 07:12:00,56.0,56.0,29.52,ENE,74,8.0,18.0,100,0.01,,,0.06,0.000000,,2013-05-06 11:12:00,
2013-05-06 07:32:00,55.0,55.0,29.53,ENE,78,8.0,21.0,100,0.00,,,0.06,2.000000,,2013-05-06 11:32:00,
2013-05-06 07:42:00,55.0,55.0,29.53,ENE,78,8.0,21.0,100,0.00,,,0.06,2.000000,,2013-05-06 11:42:00,
2013-05-06 07:52:00,55.0,55.0,29.53,ENE,78,8.0,21.0,100,0.00,,,0.06,2.000000,,2013-05-06 11:52:00,
2013-05-06 08:02:00,55.0,55.0,29.53,ENE,78,8.0,21.0,100,0.00,,,0.06,2.000000,,2013-05-06 12:02:00,
2013-05-06 08:12:00,55.0,55.0,29.53,ENE,78,8.0,21.0,100,0.00,,,0.06,2.000000,,2013-05-06 12:12:00,
2013-05-06 08:42:00,57.0,57.0,29.54,East,87,7.0,17.0,100,0.01,,,0.07,16.000000,,2013-05-06 12:42:00,
2013-05-06 08:52:00,57.0,57.0,29.54,East,87,7.0,17.0,100,0.01,,,0.07,16.000000,,2013-05-06 12:52:00,
2013-05-06 09:01:00,57.0,57.0,29.54,East,87,7.0,17.0,100,0.01,,,0.07,16.000000,,2013-05-06 13:01:00,
2013-05-06 09:11:00,57.0,57.0,29.54,East,87,7.0,17.0,100,0.01,,,0.07,16.000000,,2013-05-06 13:11:00,
2013-05-06 09:42:00,57.0,57.0,29.53,South,189,6.0,17.0,100,0.00,,,0.07,40.000000,,2013-05-06 13:42:00,
2013-05-06 09:52:00,57.0,57.0,29.53,South,189,6.0,17.0,100,0.00,,,0.07,40.000000,,2013-05-06 13:52:00,
2013-05-06 10:02:00,57.0,57.0,29.53,South,189,6.0,17.0,100,0.00,,,0.07,40.000000,,2013-05-06 14:02:00,
2013-05-06 10:11:00,57.0,57.0,29.53,South,189,6.0,17.0,100,0.00,,,0.07,40.000000,,2013-05-06 14:11:00,
2013-05-06 10:42:00,60.0,60.0,29.53,East,87,7.0,17.0,100,0.01,,,0.08,82.000000,,2013-05-06 14:42:00,
2013-05-06 10:52:00,60.0,60.0,29.53,East,87,7.0,17.0,100,0.01,,,0.08,82.000000,,2013-05-06 14:52:00,
2013-05-06 11:01:00,60.0,60.0,29.53,East,87,7.0,17.0,100,0.01,,,0.08,82.000000,,2013-05-06 15:01:00,
2013-05-06 11:11:00,60.0,60.0,29.53,East,87,7.0,17.0,100,0.01,,,0.08,82.000000,,2013-05-06 15:11:00,
2013-05-06 11:43:00,60.0,60.0,29.51,ENE,73,7.0,19.0,100,0.00,,,0.08,173.000000,,2013-05-06 15:43:00,
2013-05-06 11:53:00,60.0,60.0,29.51,ENE,73,7.0,19.0,100,0.00,,,0.08,173.000000,,2013-05-06 15:53:00,
2013-05-06 12:03:00,60.0,60.0,29.51,ENE,73,7.0,19.0,100,0.00,,,0.08,173.000000,,2013-05-06 16:03:00,
2013-05-06 12:13:00,60.0,60.0,29.51,ENE,73,7.0,19.0,100,0.00,,,0.08,173.000000,,2013-05-06 16:13:00,
2013-05-06 12:42:00,60.0,60.0,29.48,ENE,71,8.0,19.0,100,0.03,,,0.11,84.000000,,2013-05-06 16:42:00,
2013-05-06 12:52:00,60.0,60.0,29.48,ENE,71,8.0,19.0,100,0.03,,,0.11,84.000000,,2013-05-06 16:52:00,
2013-05-06 13:03:00,60.0,60.0,29.48,ENE,71,8.0,19.0,100,0.03,,,0.11,84.000000,,2013-05-06 17:03:00,
2013-05-06 13:12:00,60.0,60.0,29.48,ENE,71,8.0,19.0,100,0.03,,,0.11,84.000000,,2013-05-06 17:12:00,
2013-05-06 13:42:00,60.0,60.0,29.50,SSE,167,12.0,24.0,100,0.39,,,0.50,12.000000,,2013-05-06 17:42:00,
2013-05-06 13:52:00,60.0,60.0,29.50,SSE,167,12.0,24.0,100,0.39,,,0.50,12.000000,,2013-05-06 17:52:00,
2013-05-06 14:01:00,60.0,60.0,29.50,SSE,167,12.0,24.0,100,0.39,,,0.50,12.000000,,2013-05-06 18:01:00,
2013-05-06 14:12:00,60.0,60.0,29.50,SSE,167,12.0,24.0,100,0.39,,,0.50,12.000000,,2013-05-06 18:12:00,
2013-05-06 14:43:00,61.0,61.0,29.46,ENE,78,2.0,12.0,100,0.29,,,0.79,106.000000,,2013-05-06 18:43:00,
2013-05-06 14:52:00,61.0,61.0,29.46,ENE,78,2.0,12.0,100,0.29,,,0.79,106.000000,,2013-05-06 18:52:00,
2013-05-06 15:01:00,61.0,61.0,29.46,ENE,78,2.0,12.0,100,0.29,,,0.79,106.000000,,2013-05-06 19:01:00,
2013-05-06 15:11:00,61.0,61.0,29.46,ENE,78,2.0,12.0,100,0.29,,,0.79,106.000000,,2013-05-06 19:11:00,
2013-05-06 15:42:00,61.0,61.0,29.46,ESE,112,3.0,8.0,99,0.03,,,0.82,192.000000,,2013-05-06 19:42:00,
2013-05-06 15:52:00,61.0,61.0,29.46,ESE,112,3.0,8.0,99,0.03,,,0.82,192.000000,,2013-05-06 19:52:00,
2013-05-06 16:02:00,61.0,61.0,29.46,ESE,112,3.0,8.0,99,0.03,,,0.82,192.000000,,2013-05-06 20:02:00,
2013-05-06 16:11:00,61.0,61.0,29.46,ESE,112,3.0,8.0,99,0.03,,,0.82,192.000000,,2013-05-06 20:11:00,
2013-05-06 16:42:00,64.0,64.0,29.43,ENE,58,5.0,12.0,99,0.00,,,0.82,292.000000,,2013-05-06 20:42:00,
2013-05-06 16:52:00,64.0,64.0,29.43,ENE,58,5.0,12.0,99,0.00,,,0.82,292.000000,,2013-05-06 20:52:00,
2013-05-06 17:01:00,64.0,64.0,29.43,ENE,58,5.0,12.0,99,0.00,,,0.82,292.000000,,2013-05-06 21:01:00,
2013-05-06 17:11:00,64.0,64.0,29.43,ENE,58,5.0,12.0,99,0.00,,,0.82,292.000000,,2013-05-06 21:11:00,
2013-05-06 17:33:00,68.0,60.0,29.43,ENE,71,3.0,10.0,75,0.01,,,0.82,549.000000,,2013-05-06 21:33:00,
2013-05-06 17:43:00,68.0,60.0,29.43,ENE,71,3.0,10.0,75,0.01,,,0.82,549.000000,,2013-05-06 21:43:00,
2013-05-06 17:53:00,68.0,60.0,29.43,ENE,71,3.0,10.0,75,0.01,,,0.82,549.000000,,2013-05-06 21:53:00,
2013-05-06 18:03:00,68.0,60.0,29.43,ENE,71,3.0,10.0,75,0.01,,,0.82,549.000000,,2013-05-06 22:03:00,
2013-05-06 18:12:00,68.0,60.0,29.43,ENE,71,3.0,10.0,75,0.01,,,0.82,549.000000,,2013-05-06 22:12:00,
2013-05-06 18:45:00,63.0,61.0,29.43,NE,37,3.0,6.0,93,0.00,,,0.81,118.000000,,2013-05-06 22:45:00,
2013-05-06 18:52:00,63.0,61.0,29.43,NE,37,3.0,6.0,93,0.00,,,0.81,118.000000,,2013-05-06 22:52:00,
2013-05-06 19:03:00,63.0,61.0,29.43,NE,37,3.0,6.0,93,0.00,,,0.81,118.000000,,2013-05-06 23:03:00,
2013-05-06 19:12:00,63.0,61.0,29.43,NE,37,3.0,6.0,93,0.00,,,0.81,118.000000,,2013-05-06 23:12:00,
2013-05-06 19:42:00,64.0,60.0,29.43,NE,46,3.0,63.0,87,0.00,,,0.81,224.000000,,2013-05-06 23:42:00,
2013-05-06 19:52:00,64.0,60.0,29.43,NE,46,3.0,63.0,87,0.00,,,0.81,224.000000,,2013-05-06 23:52:00,
2013-05-06 20:01:00,64.0,60.0,29.43,NE,46,3.0,63.0,87,0.00,,,0.81,224.000000,,2013-05-07 00:01:00,
2013-05-06 20:12:00,64.0,60.0,29.43,NE,46,3.0,63.0,87,0.00,,,0.81,224.000000,,2013-05-07 00:12:00,
2013-05-06 20:42:00,62.0,62.0,29.44,ENE,58,5.0,9.0,100,0.00,,,0.81,27.000000,,2013-05-07 00:42:00,
2013-05-06 20:52:00,62.0,62.0,29.44,ENE,58,5.0,9.0,100,0.00,,,0.81,27.000000,,2013-05-07 00:52:00,
2013-05-06 21:01:00,62.0,62.0,29.44,ENE,58,5.0,9.0,100,0.00,,,0.81,27.000000,,2013-05-07 01:01:00,
2013-05-06 21:11:00,62.0,62.0,29.44,ENE,58,5.0,9.0,100,0.00,,,0.81,27.000000,,2013-05-07 01:11:00,
2013-05-06 21:42:00,61.0,61.0,29.45,NE,55,4.0,11.0,100,0.00,,,0.81,0.000000,,2013-05-07 01:42:00,
2013-05-06 21:53:00,61.0,61.0,29.45,NE,55,4.0,11.0,100,0.00,,,0.81,0.000000,,2013-05-07 01:53:00,
2013-05-06 22:02:00,61.0,61.0,29.45,NE,55,4.0,11.0,100,0.00,,,0.81,0.000000,,2013-05-07 02:02:00,
2013-05-06 22:11:00,61.0,61.0,29.45,NE,55,4.0,11.0,100,0.00,,,0.81,0.000000,,2013-05-07 02:11:00,
2013-05-06 22:32:00,59.0,59.0,29.48,East,88,3.0,9.0,100,0.00,,,0.81,0.000000,,2013-05-07 02:32:00,
2013-05-06 22:42:00,59.0,59.0,29.48,East,88,3.0,9.0,100,0.00,,,0.81,0.000000,,2013-05-07 02:42:00,
2013-05-06 22:52:00,59.0,59.0,29.48,East,88,3.0,9.0,100,0.00,,,0.81,0.000000,,2013-05-07 02:52:00,
2013-05-06 23:02:00,59.0,59.0,29.48,East,88,3.0,9.0,100,0.00,,,0.81,0.000000,,2013-05-07 03:02:00,
2013-05-06 23:12:00,59.0,59.0,29.48,East,88,3.0,9.0,100,0.00,,,0.81,0.000000,,2013-05-07 03:12:00,
2013-05-06 23:43:00,60.0,60.0,29.47,East,85,3.0,7.0,100,0.00,,,0.81,0.000000,,2013-05-07 03:43:00,
2013-05-06 23:53:00,60.0,60.0,29.47,East,85,3.0,7.0,100,0.00,,,0.81,0.000000,,2013-05-07 03:53:00,